{"data":{"norad_id":48572,"intl_designator":"2021-041V","name":"STARLINK-2222","alt_names":[],"object_type":"PAYLOAD","status":"ACTIVE","operator":null,"country":"US","launch_date":"2021-05-15","launch_site_code":"AFETR","launch_vehicle":null,"mission":null,"orbit_class":"UNKNOWN","rcs_meters":null,"size_class":null,"mass_kg":null,"dimensions":null,"purposes":["comms"],"wikipedia_slug":null,"has_3d_model":false,"image_url":null,"decayed_at":null,"tle_current":{"epoch":"2026-09-19T17:16:07.519872Z","epoch_age_seconds":104778,"freshness":"FRESH","line1":"1 48572U 21041V   26262.71953148  .00002417  00000+0  89572-4 0  9998","line2":"2 48572  53.1619 325.9379 0001320  86.2688 273.8464 15.31716092294683","mean_motion":15.31716092,"eccentricity":0.000132,"inclination_deg":53.1619,"raan_deg":325.9379,"arg_perigee_deg":86.2688,"mean_anomaly_deg":273.8464,"bstar":8.9572e-5,"rev_number":29468,"period_min":94.01220027138,"perigee_km":469.78798079951,"apogee_km":471.59607166244,"semimajor_km":6848.829026231,"source":"CELESTRAK","updated_at":"2026-09-20T09:00:39.134943Z"}}}